Date String (YYYY-MM-DD hh:mm:ss) UTC,Instrument flags,Ambient pressure (hPa),Sample flow (lpm),Bypass flow (lpm),Sample temperature (°C),Ambient temperature (°C),ASC tube jacket temperature (°C),LED temperature (°C),Box temperature (°C),Sample RH (%),Span deviation,Mass concentration (μg/m³),Mass concentration (μg/m³),Mass concentration (μg/m³)
DateTimeUTC,F1_M11,P_M11,Q1_M11,Q2_M11,T1_M11,T2_M11,T3_M11,T4_M11,T5_M11,U1_M11,ZSPAN_M11,X0_M11,X2_M11,X1_M11
2022-04-04 21:00:00,,0813.9,5.02,0.00,27.2,26.3,00.0,36.1,29.0,05.4,0000.0,0011.08,0004.20,0002.17
2022-04-04 21:01:00,,0813.9,4.98,0.00,27.2,26.3,00.0,36.1,29.1,05.4,0000.0,0011.36,0004.26,0002.18
2022-04-04 21:02:00,,0813.7,4.99,0.00,27.2,26.3,00.0,36.1,29.1,05.5,0000.0,0011.51,0004.32,0002.19
2022-04-04 21:03:00,,0813.8,5.01,0.00,27.2,26.3,00.0,36.1,29.0,05.5,0000.0,0011.57,0004.35,0002.20
2022-04-04 21:04:00,,0813.8,4.98,0.00,27.2,26.3,00.0,36.1,29.0,05.5,0000.0,0011.79,0004.41,0002.22
2022-04-04 21:05:00,,0814.1,5.01,0.00,27.2,26.3,00.0,36.1,29.0,05.7,0000.0,0011.86,0004.42,0002.22
2022-04-04 21:06:00,,0813.9,4.98,0.00,27.2,26.4,00.0,36.1,29.0,05.7,0000.0,0011.25,0004.44,0002.22
2022-04-04 21:07:00,,0813.7,5.00,0.00,27.2,26.4,00.0,36.1,29.0,05.6,0000.0,0010.84,0004.43,0002.22
2022-04-04 21:08:00,,0813.7,5.02,0.00,27.3,26.4,00.0,36.1,29.0,05.6,0000.0,0010.71,0004.46,0002.23
2022-04-04 21:09:00,,0814.0,5.00,0.00,27.3,26.4,00.0,36.1,29.0,05.6,0000.0,0010.77,0004.49,0002.24
2022-04-04 21:10:00,,0814.1,5.01,0.00,27.3,26.4,00.0,36.1,29.0,05.8,0000.0,0010.74,0004.47,0002.23
2022-04-04 21:11:00,,0813.9,5.00,0.00,27.3,26.4,00.0,36.1,29.0,05.7,0000.0,0010.74,0004.46,0002.23
2022-04-04 21:12:00,,0813.8,4.99,0.00,27.3,26.4,00.0,36.2,29.1,05.6,0000.0,0010.35,0004.40,0002.22
2022-04-04 21:13:00,,0813.7,5.00,0.00,27.3,26.4,00.0,36.2,29.1,05.6,0000.0,0010.33,0004.39,0002.22
2022-04-04 21:14:00,,0813.8,5.01,0.00,27.4,26.4,00.0,36.2,29.1,05.6,0000.0,0010.68,0004.47,0002.21
2022-04-04 21:15:00,,0813.9,5.00,0.00,27.4,26.4,00.0,36.2,29.1,05.7,0000.0,0011.01,0004.44,0002.20
2022-04-04 21:16:00,,0814.0,4.99,0.00,27.4,26.5,00.0,36.2,29.1,05.6,0000.0,0011.31,0004.42,0002.21
2022-04-04 21:17:00,,0813.7,5.00,0.00,27.4,26.5,00.0,36.2,29.2,05.7,0000.0,0011.42,0004.43,0002.22
2022-04-04 21:18:00,,0813.9,5.01,0.00,27.4,26.5,00.0,36.2,29.2,05.8,0000.0,0011.43,0004.42,0002.21
2022-04-04 21:19:00,,0813.7,4.99,0.00,27.4,26.5,00.0,36.2,29.1,05.5,0000.0,0011.42,0004.41,0002.22
2022-04-04 21:20:00,,0813.8,5.01,0.00,27.4,26.5,00.0,36.3,29.2,05.3,0000.0,0012.78,0004.38,0002.21
2022-04-04 21:21:00,,0813.8,5.00,0.00,27.4,26.5,00.0,36.3,29.1,05.4,0000.0,0012.60,0004.32,0002.19
2022-04-04 21:22:00,,0813.7,4.99,0.00,27.4,26.6,00.0,36.3,29.1,05.3,0000.0,0012.66,0004.27,0002.17
2022-04-04 21:23:00,,0813.7,5.02,0.00,27.4,26.6,00.0,36.3,29.2,04.9,0000.0,0012.70,0004.29,0002.18
2022-04-04 21:24:00,,0813.6,4.99,0.00,27.4,26.6,00.0,36.3,29.2,05.0,0000.0,0012.96,0004.28,0002.19
2022-04-04 21:25:00,,0814.1,5.00,0.00,27.4,26.6,00.0,36.3,29.2,05.0,0000.0,0012.70,0004.22,0002.18
2022-04-04 21:26:00,,0813.5,5.01,0.00,27.4,26.6,00.0,36.3,29.2,05.1,0000.0,0012.43,0004.23,0002.18
2022-04-04 21:27:00,,0813.4,4.99,0.00,27.4,26.6,00.0,36.3,29.3,05.1,0000.0,0012.09,0004.25,0002.19
2022-04-04 21:28:00,,0813.3,5.02,0.00,27.4,26.6,00.0,36.3,29.2,05.2,0000.0,0012.04,0004.25,0002.18
2022-04-04 21:29:00,,0813.4,5.00,0.00,27.5,26.6,00.0,36.3,29.3,05.3,0000.0,0012.02,0004.25,0002.17
2022-04-04 21:30:00,,0813.4,4.98,0.00,27.5,26.6,00.0,36.3,29.3,05.4,0000.0,0012.31,0004.28,0002.18
2022-04-04 21:31:00,,0813.3,5.01,0.00,27.5,26.6,00.0,36.3,29.3,05.7,0000.0,0011.05,0004.31,0002.19
2022-04-04 21:32:00,,0813.3,4.99,0.00,27.5,26.6,00.0,36.3,29.2,05.9,0000.0,0011.22,0004.40,0002.19
2022-04-04 21:33:00,,0813.3,4.99,0.00,27.4,26.6,00.0,36.4,29.2,06.0,0000.0,0010.95,0004.40,0002.20
2022-04-04 21:34:00,,0813.3,5.01,0.00,27.4,26.6,00.0,36.4,29.2,05.7,0000.0,0010.91,0004.39,0002.18
2022-04-04 21:35:00,,0813.3,5.01,0.00,27.4,26.6,00.0,36.4,29.2,05.8,0000.0,0010.72,0004.40,0002.18
2022-04-04 21:36:00,,0813.4,4.99,0.00,27.4,26.5,00.0,36.3,29.2,05.5,0000.0,0010.75,0004.40,0002.18
2022-04-04 21:37:00,,0813.4,5.01,0.00,27.4,26.6,00.0,36.3,29.2,05.5,0000.0,0010.62,0004.40,0002.19
2022-04-04 21:38:00,,0813.5,5.00,0.00,27.4,26.6,00.0,36.3,29.1,05.7,0000.0,0010.49,0004.41,0002.18
2022-04-04 21:39:00,,0813.5,5.00,0.00,27.4,26.6,00.0,36.4,29.2,06.0,0000.0,0010.35,0004.39,0002.19
2022-04-04 21:40:00,,0813.4,5.01,0.00,27.4,26.6,00.0,36.4,29.2,06.2,0000.0,0010.25,0004.39,0002.22
2022-04-04 21:41:00,,0813.4,4.98,0.00,27.4,26.6,00.0,36.4,29.2,06.3,0000.0,0010.11,0004.39,0002.24
2022-04-04 21:42:00,,0813.4,5.00,0.00,27.4,26.6,00.0,36.4,29.2,06.1,0000.0,0010.74,0004.43,0002.25
2022-04-04 21:43:00,,0813.4,4.99,0.00,27.4,26.6,00.0,36.4,29.2,05.9,0000.0,0010.58,0004.40,0002.25
2022-04-04 21:44:00,,0813.3,5.00,0.00,27.4,26.6,00.0,36.4,29.2,05.9,0000.0,0011.09,0004.39,0002.24
2022-04-04 21:45:00,,0813.4,5.01,0.00,27.4,26.6,00.0,36.4,29.2,06.0,0000.0,0011.24,0004.41,0002.26
2022-04-04 21:46:00,,0813.4,4.99,0.00,27.4,26.6,00.0,36.4,29.2,06.0,0000.0,0011.12,0004.40,0002.26
2022-04-04 21:47:00,,0813.4,5.00,0.00,27.5,26.6,00.0,36.4,29.2,06.2,0000.0,0011.18,0004.43,0002.27
2022-04-04 21:48:00,,0813.5,5.00,0.00,27.5,26.6,00.0,36.4,29.2,06.0,0000.0,0011.14,0004.45,0002.28
2022-04-04 21:49:00,,0813.4,5.00,0.00,27.5,26.6,00.0,36.4,29.3,05.9,0000.0,0011.27,0004.50,0002.30
2022-04-04 21:50:00,,0813.4,5.01,0.00,27.5,26.6,00.0,36.4,29.3,05.9,0000.0,0011.25,0004.52,0002.29
2022-04-04 21:51:00,,0813.3,5.00,0.00,27.5,26.6,00.0,36.4,29.3,06.2,0000.0,0011.30,0004.53,0002.27
2022-04-04 21:52:00,,0813.3,4.99,0.00,27.5,26.7,00.0,36.4,29.2,06.2,0000.0,0011.18,0004.46,0002.25
2022-04-04 21:53:00,,0813.2,5.02,0.00,27.5,26.7,00.0,36.4,29.3,06.4,0000.0,0010.70,0004.42,0002.25
2022-04-04 21:54:00,,0813.1,4.99,0.00,27.5,26.7,00.0,36.4,29.3,06.4,0000.0,0010.82,0004.43,0002.28
2022-04-04 21:55:00,,0813.1,5.01,0.00,27.5,26.7,00.0,36.4,29.3,06.5,0000.0,0010.71,0004.44,0002.29
2022-04-04 21:56:00,,0813.1,4.99,0.00,27.5,26.6,00.0,36.4,29.4,06.4,0000.0,0011.22,0004.52,0002.30
2022-04-04 21:57:00,,0813.2,4.99,0.00,27.5,26.7,00.0,36.4,29.3,06.5,0000.0,0011.50,0004.54,0002.31
2022-04-04 21:58:00,,0813.0,5.01,0.00,27.5,26.7,00.0,36.4,29.3,06.6,0000.0,0012.58,0004.52,0002.31
2022-04-04 21:59:00,,0813.1,5.00,0.00,27.5,26.7,00.0,36.4,29.3,06.6,0000.0,0013.49,0004.50,0002.32
